Date String (YYYY-MM-DD hh:mm:ss) UTC,Instrument flags,absolute air pressure of the measurement (hPa),sample flow rate (lpm),inlet stack bypass flow (lpm),air temperature of the measurement (°C),ambient temperature measured by the external sensor (°C),aerosol sample conditioner tube jacket temperature (°C),OPC LED temperature (°C),internal box temperature (°C),relative humidity of the measurement (%),span deviation,mass concentration of particles derived from Lorenz-Mie calculation of OPC scattering (μg/m³),mass concentration of particles derived from Lorenz-Mie calculation of OPC scattering (μg/m³),mass concentration of particles derived from Lorenz-Mie calculation of OPC scattering (μg/m³)
DateTimeUTC,F1_M11,P_M11,Q1_M11,Q2_M11,T1_M11,T2_M11,T3_M11,T4_M11,T5_M11,U1_M11,ZSPAN_M11,X0_M11,X2_M11,X1_M11
2024-05-30 21:00:00,SystemResetWarning,0828.4,5.01,000.00,029.5,028.2,000.0,037.9,031.1,016.4,0000.0,0021.36,0004.82,0003.30
2024-05-30 21:01:00,SystemResetWarning,0828.4,5.00,000.00,029.5,028.4,000.0,037.9,031.2,015.5,0000.0,0021.64,0004.82,0003.29
2024-05-30 21:02:00,SystemResetWarning,0828.4,4.99,000.00,029.6,028.6,000.0,037.9,031.3,015.8,0000.0,0022.04,0004.81,0003.27
2024-05-30 21:03:00,SystemResetWarning,0828.4,5.00,000.00,029.6,028.8,000.0,037.9,031.4,015.4,0000.0,0021.79,0004.88,0003.25
2024-05-30 21:04:00,SystemResetWarning,0828.4,5.01,000.00,029.7,029.0,000.0,037.9,031.4,015.0,0000.0,0022.59,0004.92,0003.23
2024-05-30 21:05:00,SystemResetWarning,0828.4,5.01,000.00,029.7,029.1,000.0,037.9,031.5,015.3,0000.0,0023.71,0004.87,0003.22
2024-05-30 21:06:00,SystemResetWarning,0828.4,4.99,000.00,029.8,029.2,000.0,038.0,031.6,015.0,0000.0,0022.34,0004.82,0003.20
2024-05-30 21:07:00,SystemResetWarning,0828.3,4.99,000.00,029.9,029.3,000.0,038.0,031.7,014.6,0000.0,0020.31,0004.72,0003.18
2024-05-30 21:08:00,SystemResetWarning,0828.4,5.00,000.00,029.9,029.4,000.0,038.0,031.7,015.0,0000.0,0019.83,0004.64,0003.16
2024-05-30 21:09:00,SystemResetWarning,0828.4,5.00,000.00,030.0,029.5,000.0,038.1,031.8,014.3,0000.0,0019.40,0004.61,0003.14
2024-05-30 21:10:00,SystemResetWarning,0828.4,4.99,000.00,030.0,028.8,000.0,038.1,031.4,014.3,0000.0,0019.85,0004.63,0003.13
2024-05-30 21:11:00,SystemResetWarning,0828.3,5.01,000.00,029.6,026.8,000.0,038.2,030.4,015.1,0000.0,0019.62,0004.59,0003.11
2024-05-30 21:12:00,SystemResetWarning,0828.4,5.01,000.00,029.4,026.8,000.0,038.1,030.3,014.0,0000.0,0019.75,0004.64,0003.10
2024-05-30 21:13:00,SystemResetWarning,0828.4,5.00,000.00,029.3,027.1,000.0,038.0,030.5,014.2,0000.0,0018.90,0004.67,0003.09
2024-05-30 21:14:00,SystemResetWarning,0828.4,5.00,000.00,029.4,027.5,000.0,037.9,030.7,015.1,0000.0,0020.87,0004.78,0003.10
2024-05-30 21:15:00,SystemResetWarning,0828.4,5.00,000.00,029.4,027.9,000.0,037.9,030.9,015.3,0000.0,0022.35,0005.03,0003.12
2024-05-30 21:16:00,SystemResetWarning,0828.4,5.01,000.00,029.5,028.2,000.0,037.9,031.1,015.3,0000.0,0021.87,0005.03,0003.12
2024-05-30 21:17:00,SystemResetWarning,0828.4,5.00,000.00,029.5,028.4,000.0,037.9,031.2,014.8,0000.0,0021.33,0004.97,0003.11
2024-05-30 21:18:00,SystemResetWarning,0828.4,4.99,000.00,029.6,028.6,000.0,037.9,031.3,014.7,0000.0,0021.57,0005.00,0003.12
2024-05-30 21:19:00,SystemResetWarning,0828.4,5.00,000.00,029.6,028.8,000.0,037.9,031.3,014.1,0000.0,0021.33,0005.02,0003.12
2024-05-30 21:20:00,SystemResetWarning,0828.4,5.00,000.00,029.7,028.9,000.0,037.9,031.4,014.3,0000.0,0022.29,0005.03,0003.11
2024-05-30 21:21:00,SystemResetWarning,0828.4,5.00,000.00,029.7,029.1,000.0,037.9,031.5,014.4,0000.0,0022.55,0004.99,0003.11
2024-05-30 21:22:00,SystemResetWarning,0828.4,5.02,000.00,029.8,029.2,000.0,038.0,031.6,014.3,0000.0,0023.04,0004.97,0003.11
2024-05-30 21:23:00,SystemResetWarning,0828.4,5.00,000.00,029.8,029.3,000.0,038.0,031.7,014.2,0000.0,0023.78,0004.92,0003.12
2024-05-30 21:24:00,SystemResetWarning,0828.4,5.00,000.00,029.9,029.4,000.0,038.0,031.7,014.2,0000.0,0023.18,0004.82,0003.11
2024-05-30 21:25:00,SystemResetWarning,0828.4,4.99,000.00,029.9,029.4,000.0,038.1,031.8,014.6,0000.0,0020.99,0004.72,0003.11
2024-05-30 21:26:00,SystemResetWarning,0828.4,4.99,000.00,030.0,029.5,000.0,038.1,031.8,014.7,0000.0,0019.56,0004.46,0003.06
2024-05-30 21:27:00,SystemResetWarning,0828.4,5.00,000.00,030.0,029.5,000.0,038.1,031.8,013.8,0000.0,0018.75,0004.49,0003.07
2024-05-30 21:28:00,SystemResetWarning,0828.4,5.00,000.00,029.9,027.9,000.0,038.2,030.9,013.4,0000.0,0019.04,0004.56,0003.06
2024-05-30 21:29:00,SystemResetWarning,0828.4,5.01,000.00,029.5,026.5,000.0,038.2,030.3,013.8,0000.0,0018.95,0004.58,0003.03
2024-05-30 21:30:00,SystemResetWarning,0828.3,5.01,000.00,029.4,026.8,000.0,038.2,030.4,013.8,0000.0,0019.25,0004.52,0002.98
2024-05-30 21:31:00,SystemResetWarning,0828.3,5.00,000.00,029.4,027.2,000.0,038.0,030.6,013.7,0000.0,0018.86,0004.46,0002.93
2024-05-30 21:32:00,SystemResetWarning,0828.4,5.00,000.00,029.4,027.6,000.0,037.9,030.8,013.8,0000.0,0019.02,0004.44,0002.91
2024-05-30 21:33:00,SystemResetWarning,0828.4,5.00,000.00,029.4,027.9,000.0,037.9,031.0,013.5,0000.0,0019.83,0004.45,0002.88
2024-05-30 21:34:00,SystemResetWarning,0828.3,5.00,000.00,029.5,028.2,000.0,037.9,031.1,013.1,0000.0,0019.79,0004.51,0002.86
2024-05-30 21:35:00,SystemResetWarning,0828.3,4.99,000.00,029.5,028.4,000.0,037.9,031.2,012.7,0000.0,0019.36,0004.51,0002.81
2024-05-30 21:36:00,SystemResetWarning,0828.3,5.00,000.00,029.6,028.6,000.0,037.9,031.3,012.8,0000.0,0020.17,0004.49,0002.76
2024-05-30 21:37:00,SystemResetWarning,0828.3,5.01,000.00,029.6,028.8,000.0,037.9,031.4,013.1,0000.0,0019.07,0004.39,0002.72
2024-05-30 21:38:00,SystemResetWarning,0828.2,5.02,000.00,029.7,029.0,000.0,038.0,031.5,012.6,0000.0,0019.64,0004.29,0002.65
2024-05-30 21:39:00,SystemResetWarning,0828.3,4.99,000.00,029.7,029.1,000.0,038.0,031.5,012.4,0000.0,0019.27,0004.21,0002.60
2024-05-30 21:40:00,SystemResetWarning,0828.3,5.00,000.00,029.8,029.2,000.0,038.0,031.6,011.8,0000.0,0019.32,0004.20,0002.57
2024-05-30 21:41:00,SystemResetWarning,0828.3,5.00,000.00,029.9,029.3,000.0,038.0,031.6,012.5,0000.0,0020.04,0004.20,0002.55
2024-05-30 21:42:00,SystemResetWarning,0828.3,5.00,000.00,029.9,029.4,000.0,038.0,031.7,012.9,0000.0,0025.33,0004.35,0002.55
2024-05-30 21:43:00,SystemResetWarning,0828.3,5.00,000.00,030.0,029.4,000.0,038.1,031.8,011.4,0000.0,0028.78,0004.48,0002.53
2024-05-30 21:44:00,SystemResetWarning,0828.4,5.01,000.00,030.0,029.5,000.0,038.1,031.8,011.6,0000.0,0028.78,0004.52,0002.48
2024-05-30 21:45:00,SystemResetWarning,0828.3,5.01,000.00,030.1,029.6,000.0,038.2,031.9,011.0,0000.0,0029.09,0004.59,0002.45
2024-05-30 21:46:00,SystemResetWarning,0828.4,4.99,000.00,030.1,029.6,000.0,038.2,031.9,010.7,0000.0,0029.43,0004.52,0002.41
2024-05-30 21:47:00,SystemResetWarning,0828.4,4.98,000.00,030.0,028.4,000.0,038.3,031.3,011.0,0000.0,0029.38,0004.40,0002.35
2024-05-30 21:48:00,SystemResetWarning,0828.3,5.02,000.00,029.7,026.6,000.0,038.3,030.5,011.1,0000.0,0029.56,0004.34,0002.32
2024-05-30 21:49:00,SystemResetWarning,0828.3,5.01,000.00,029.5,026.8,000.0,038.2,030.4,011.8,0000.0,0028.89,0004.25,0002.29
2024-05-30 21:50:00,SystemResetWarning,0828.4,5.00,000.00,029.4,027.2,000.0,038.1,030.6,011.5,0000.0,0028.50,0004.25,0002.24
2024-05-30 21:51:00,SystemResetWarning,0828.4,5.00,000.00,029.5,027.6,000.0,038.1,030.9,011.5,0000.0,0028.27,0004.17,0002.21
2024-05-30 21:52:00,SystemResetWarning,0828.4,5.00,000.00,029.5,027.9,000.0,038.0,031.0,011.3,0000.0,0027.35,0004.14,0002.21
2024-05-30 21:53:00,SystemResetWarning,0828.4,4.99,000.00,029.5,028.2,000.0,038.0,031.2,011.9,0000.0,0023.12,0003.98,0002.18
2024-05-30 21:54:00,SystemResetWarning,0828.4,4.99,000.00,029.6,028.4,000.0,038.0,031.3,011.5,0000.0,0018.11,0003.72,0002.14
2024-05-30 21:55:00,SystemResetWarning,0828.4,5.00,000.00,029.6,028.6,000.0,038.0,031.3,011.0,0000.0,0017.52,0003.62,0002.13
2024-05-30 21:56:00,SystemResetWarning,0828.3,5.00,000.00,029.7,028.8,000.0,038.0,031.4,011.3,0000.0,0015.71,0003.39,0002.09
2024-05-30 21:57:00,SystemResetWarning,0828.4,5.00,000.00,029.7,029.0,000.0,038.0,031.5,011.7,0000.0,0015.78,0003.40,0002.09
2024-05-30 21:58:00,SystemResetWarning,0828.4,5.00,000.00,029.8,029.1,000.0,038.0,031.6,011.6,0000.0,0016.65,0003.45,0002.10
2024-05-30 21:59:00,SystemResetWarning,0828.3,5.01,000.00,029.8,029.2,000.0,038.1,031.6,011.9,0000.0,0016.37,0003.50,0002.10
